Location: Newark
(46.4000°N, 12.3500°E)
Time: 02:41:49
(UTC+00:00)

OTV 5 (USA 277) - Visible Passes

Search period start: 17 October 2019 00:00
Search period end: 27 October 2019 00:00
Orbit: 310 x 324 km, 54.5° (Epoch: 08 October)

Date Brightness Start Highest point End Pass type
(mag) Time Alt. Az. Time Alt. Az. Time Alt. Az.
17 Oct ? 04:21:37 19° NW 04:23:26 64° NNE 04:26:08 10° ESE visible
18 Oct ? 03:05:07 15° ENE 03:05:07 15° ENE 03:05:51 10° E visible
18 Oct ? 04:36:01 16° WNW 04:37:57 50° SW 04:40:37 10° SE visible
19 Oct ? 03:19:36 22° E 03:19:36 22° E 03:20:51 10° ESE visible
19 Oct ? 04:50:31 12° W 04:52:22 20° SW 04:54:29 10° S visible
20 Oct ? 03:34:13 25° SE 03:34:13 25° SE 03:35:33 10° SE visible
21 Oct ? 03:48:58 16° SSE 03:48:58 16° SSE 03:49:46 10° SSE visible
